Weather in Ozerki

Russia / Kursk Oblast     51°01′33″N   35°31′03″E
temp.,
°C
wind,
m/s
gust,
m/s
humid.,
%
clouds,
%
prec.,
mm/h
press.,
hPa
HPBL,
m
10 august, wed
wed1000:00+18n37955 0.6 1019172
03:00+17n369817 1.2 1018155
06:00+17n489698 1.5 1018240
09:00+19nne4788100 1.6 1018345
12:00+22nne5673100 0.0 1018681
15:00+26ne5557100 0.0 10161113
18:00+25nne5662100 0.0 1016797
21:00+20nne51282100 0.4 1016361
11 august, thu
thu1100:00+18ne61289100 0.0 1016345
03:00+18nne61189100 0.1 1016357
06:00+18ne6118799 0.0 1016274
09:00+22ene7116882 0.1 1017506
12:00+27ene6749100 0.0 1016855
15:00+30ene683670 0.0 10162123
18:00+29e484373 0.0 1015379
21:00+24ene5105488 0.0 1017285
12 august, fri
fri1200:00+24ene51353100 0.0 1017473
03:00+23ene51259100 0.0 1017383
06:00+20ne3667100 0.0 1018128
09:00+21ne4107496 0.1 1019401
12:00+26ene61054100 0.0 1018928
15:00+30e6838100 0.0 10181664
18:00+29ne4744100 0.0 1017313
21:00+22nw4671100 0.1 1019104
13 august, sat
sat1300:00+24nne2250100 0.0 101830
03:00+22ene41067100 0.1 1018219
06:00+22ene5136398 0.0 1018373
09:00+24e41162100 0.1 1018465
12:00+27ene5851100 0.0 1018791
15:00+32e893430 0.0 10162362
18:00+30ene7124089 0.0 1015771
21:00+25ene8165080 0.0 1016533
14 august, sun
sun1400:00+25e7164520 0.0 1016481
03:00+23ene6165088 0.0 1015469
06:00+21e5135921 0.0 1015310
09:00+26e7104994 0.0 1016568
12:00+32e793043 0.0 10151097
15:00+34ese8826100 0.0 10141818
18:00+31ene71135100 0.0 1014677
21:00+25e51044100 0.0 1015228